Date,TemperatureHighF,TemperatureAvgF,TemperatureLowF,DewpointHighF,DewpointAvgF,DewpointLowF,HumidityHigh,HumidityAvg,HumidityLow,PressureMaxIn,PressureMinIn,WindSpeedMaxMPH,WindSpeedAvgMPH,GustSpeedMaxMPH,PrecipitationSumIn
2013-1-1,21.3,15.0,5.9,14.6,10.7,2.9,92,83,74,30.38,30.19,11,4,12,0.00
2013-1-2,36.4,24.9,12.4,29.9,20.7,8.2,92,84,76,30.28,30.11,8,3,10,0.02
2013-1-3,30.7,25.3,17.2,26.9,20.6,13.8,89,82,72,30.45,30.27,12,5,13,0.00
2013-1-4,31.6,21.6,15.0,21.3,16.0,11.8,91,79,63,30.36,30.18,9,5,11,0.00
2013-1-5,32.1,24.9,18.9,24.7,19.8,14.8,91,81,67,30.20,30.05,19,5,24,0.00
2013-1-6,29.9,28.7,27.3,24.4,23.1,22.1,82,79,76,30.22,30.15,10,8,13,0.00
2013-1-7,38.7,33.5,25.4,30.4,26.7,23.4,93,76,67,30.15,29.95,17,6,20,0.00
2013-1-8,38.7,29.2,17.6,31.7,25.4,15.9,95,86,74,30.17,29.86,10,3,16,0.00
2013-1-9,45.6,35.2,26.0,34.1,29.2,23.0,90,79,62,30.45,30.17,7,2,9,0.00
2013-1-10,38.6,36.9,35.7,37.8,34.5,30.4,97,91,77,30.33,29.67,8,4,11,0.15
2013-1-11,51.6,41.6,25.6,45.5,38.8,18.2,98,90,73,29.77,29.34,16,9,21,0.01
2013-1-12,25.9,19.0,12.1,19.9,10.8,6.7,79,70,59,30.20,29.77,15,8,20,0.00
2013-1-13,21.1,13.9,7.6,10.3,6.6,3.3,83,73,56,30.41,30.19,11,4,18,0.00
2013-1-14,29.0,18.1,8.4,14.8,10.4,4.6,85,72,51,30.53,30.41,6,1,18,0.00
2013-1-15,34.8,24.0,14.1,22.8,16.8,10.0,85,74,59,30.41,30.07,9,5,18,0.00
2013-1-16,52.0,36.3,22.9,35.0,27.8,17.4,85,72,50,30.25,29.96,10,6,18,0.00
2013-1-17,45.9,33.5,26.0,38.1,30.0,24.8,97,88,62,30.47,30.25,7,2,18,0.00
2013-1-18,51.5,40.1,32.2,35.8,31.4,27.7,90,72,52,30.29,29.89,17,7,23,0.00
2013-1-19,52.9,40.8,24.9,34.2,29.2,14.5,83,64,46,30.33,29.87,16,8,18,0.00
2013-1-20,24.3,18.9,14.7,16.6,10.8,8.5,81,70,56,30.47,30.31,11,4,18,0.00
2013-1-21,17.5,13.6,10.2,13.9,4.5,-3.0,92,67,52,30.52,30.41,13,5,18,0.00
2013-1-22,23.4,17.7,12.9,14.1,10.2,6.4,82,72,62,30.45,30.28,8,4,18,0.00
2013-1-23,31.7,21.2,13.1,20.6,13.9,6.3,84,73,59,30.53,30.21,14,6,19,0.00
2013-1-24,21.0,12.0,3.1,7.8,1.3,-3.9,77,62,51,30.59,30.23,10,6,18,0.00
2013-1-25,51.9,32.2,16.8,28.3,19.2,7.2,81,61,35,30.27,30.17,9,3,13,0.00
2013-1-26,56.7,37.0,19.9,29.6,23.5,17.2,91,63,28,30.26,29.98,14,6,16,0.00
2013-1-27,43.4,40.0,36.5,42.5,37.4,27.0,98,91,54,29.98,29.65,13,6,19,0.15
2013-1-28,43.6,38.7,33.8,43.1,38.2,33.1,98,98,97,29.84,29.55,7,3,13,0.01
2013-1-29,38.8,33.6,30.3,38.3,32.2,29.5,98,94,89,29.70,29.58,21,10,24,0.00
2013-1-30,30.3,21.5,13.2,29.6,17.8,10.2,100,85,73,29.99,29.65,26,13,32,0.00
2013-1-31,15.9,8.9,1.4,12.6,2.0,-4.6,87,73,62,30.52,29.98,22,9,24,0.00
2013-2-1,28.6,16.8,2.4,22.7,10.3,-3.1,85,75,67,30.50,30.12,16,8,21,0.00
2013-2-2,43.9,33.3,25.6,36.9,27.9,21.4,90,81,66,30.24,30.06,18,3,26,0.00
2013-2-3,43.7,35.5,24.5,31.9,27.7,21.6,91,74,52,30.24,29.79,13,6,18,0.00
2013-2-4,38.2,28.4,23.8,30.9,24.4,21.0,92,85,73,30.03,29.78,16,7,19,0.00
2013-2-5,51.4,39.0,26.6,35.4,29.1,24.6,93,70,43,30.06,29.86,16,5,23,0.00
2013-2-6,58.1,45.2,36.0,43.9,35.6,28.2,85,69,54,30.06,29.80,15,7,19,0.00
2013-2-7,42.3,34.3,29.2,37.7,30.3,25.5,92,85,79,30.26,29.86,16,10,21,0.00
2013-2-8,37.7,31.0,26.3,30.5,26.7,23.1,89,84,74,30.36,30.13,12,6,18,0.00
2013-2-9,52.2,40.3,30.6,40.7,34.2,28.0,91,79,63,30.15,29.63,18,13,25,0.00
2013-2-10,45.4,38.9,32.5,43.1,35.1,24.6,96,86,71,29.64,29.24,21,13,30,0.03
2013-2-11,39.8,32.4,26.2,26.7,23.6,21.9,86,71,56,30.18,30.05,14,6,19,0.00
2013-2-12,49.4,33.9,22.4,26.9,22.6,18.8,91,67,35,30.18,29.93,10,4,15,0.00
2013-2-13,54.6,39.7,25.8,32.2,27.5,22.1,87,64,35,29.93,29.74,8,2,15,0.00
2013-2-14,44.5,36.6,20.9,32.5,27.4,15.1,91,71,42,30.30,29.81,23,9,25,0.01
2013-2-15,33.8,24.6,16.2,26.2,18.3,11.9,87,77,54,30.40,30.30,18,6,22,0.00
2013-2-16,38.2,26.1,13.5,26.2,19.3,10.9,89,76,53,30.38,30.01,12,5,16,0.00
2013-2-17,60.4,40.9,23.6,35.4,28.9,21.1,90,66,35,30.02,29.52,15,8,26,0.00
2013-2-18,46.1,33.5,22.4,34.2,25.7,16.1,92,73,55,30.10,29.51,24,12,27,0.00
2013-2-19,28.1,19.0,11.7,17.7,6.6,0.8,79,60,31,30.42,30.10,17,10,20,0.00
2013-2-20,24.5,15.7,6.4,15.5,6.7,1.5,81,68,51,30.43,30.24,9,6,13,0.00
2013-2-21,23.7,21.8,20.6,20.3,15.6,9.5,93,78,54,30.28,29.87,10,7,19,0.00
2013-2-22,22.4,17.7,9.0,19.4,14.2,6.2,92,86,77,30.09,29.87,12,6,15,0.02
2013-2-23,37.2,21.4,6.9,28.9,16.7,4.2,90,83,68,30.07,29.87,10,6,14,0.02
2013-2-24,41.9,31.8,23.1,30.8,26.4,19.8,89,81,61,30.08,29.91,8,4,10,0.02
2013-2-25,34.2,29.8,26.6,30.9,26.4,23.8,92,87,80,30.09,29.91,11,6,13,0.00
2013-2-26,30.2,27.2,23.8,27.3,25.1,22.3,95,92,86,29.96,29.82,14,10,16,0.00
2013-2-27,39.8,31.5,25.0,29.4,25.9,21.8,94,80,61,30.14,29.93,25,15,30,0.00
2013-2-28,32.4,29.2,26.2,27.5,24.4,21.5,87,82,76,30.27,30.13,19,12,23,0.00
2013-3-1,31.6,26.0,19.5,21.5,19.3,15.5,84,76,63,30.40,30.25,15,10,19,0.00
2013-3-2,42.0,28.1,13.7,25.9,19.4,11.3,92,72,48,30.40,30.10,8,4,12,0.00
2013-3-3,44.9,35.6,27.7,33.9,28.7,23.8,87,76,64,30.10,29.67,15,8,18,0.00
2013-3-4,40.4,34.4,28.0,33.5,29.5,21.9,95,82,70,30.06,29.62,17,7,19,0.00
2013-3-5,34.6,27.9,21.8,22.5,19.5,16.5,82,71,57,30.43,30.05,25,14,30,0.00
2013-3-6,40.4,28.3,19.5,23.8,20.1,15.6,92,73,47,30.47,30.25,12,6,17,0.00
2013-3-7,55.7,37.4,24.7,31.0,24.4,-99.9,83,64,36,30.28,30.06,14,-3,23,0.00
2013-3-8,60.0,43.9,29.4,42.4,34.3,25.7,91,70,50,30.16,29.87,17,9,22,0.10
2013-3-9,58.9,48.1,34.2,53.8,44.9,32.4,95,89,82,29.87,29.49,20,9,31,0.13
2013-3-10,34.2,26.2,21.4,32.4,24.9,19.9,97,95,92,30.00,29.67,25,20,29,0.03
2013-3-11,33.2,24.0,14.4,24.3,19.2,11.6,94,82,62,30.06,29.93,18,7,21,0.05
2013-3-12,34.1,29.4,23.4,26.0,22.9,18.8,88,77,68,30.37,30.05,17,8,22,0.01
2013-3-13,42.6,28.3,15.4,28.4,21.0,13.0,93,76,51,30.49,30.25,11,4,18,0.00
2013-3-14,59.1,44.8,33.0,43.7,34.7,23.3,82,68,54,30.25,30.04,11,4,18,0.00
2013-3-15,62.9,49.7,39.9,46.9,40.7,33.9,92,72,50,30.04,29.67,10,5,18,0.00
2013-3-16,42.4,31.9,27.0,40.0,27.8,23.7,93,85,75,30.18,29.81,18,9,24,0.00
2013-3-17,46.7,34.6,25.1,33.5,27.4,21.8,91,76,58,30.16,29.73,13,8,19,0.01
2013-3-18,41.4,35.5,29.5,35.2,23.8,15.8,96,65,39,30.08,29.69,21,10,27,0.04
2013-3-19,51.8,35.1,23.6,34.3,21.7,16.9,82,60,32,30.35,30.07,17,5,21,0.00
2013-3-20,38.3,26.5,16.9,19.6,12.9,5.6,81,58,37,30.43,30.12,13,7,18,0.00
2013-3-21,32.3,26.7,21.2,22.1,18.1,13.7,89,70,61,30.12,29.92,11,5,18,0.00
2013-3-22,34.1,30.2,27.2,26.8,23.0,19.6,89,75,60,30.05,29.98,8,3,18,0.02
2013-3-23,36.8,31.7,29.0,30.6,26.6,22.2,94,82,65,30.12,30.02,10,5,14,0.02
2013-3-24,29.4,26.5,23.6,27.6,21.3,16.8,94,81,69,30.15,30.06,19,14,23,0.00
2013-3-25,30.1,26.9,24.5,25.1,22.0,19.9,91,81,70,30.39,30.14,21,14,24,0.00
2013-3-26,42.7,31.8,19.9,24.6,20.1,14.9,84,63,42,30.42,30.24,8,4,9,0.00
2013-3-27,52.7,39.3,27.1,33.5,27.8,21.9,82,64,46,30.27,30.15,12,6,18,0.00
2013-3-28,59.7,45.5,29.9,36.4,32.1,27.3,90,62,37,30.24,30.11,8,3,18,0.00
2013-3-29,69.2,54.3,36.8,41.4,35.3,30.7,86,53,27,30.19,29.98,13,6,21,0.00
2013-3-30,65.9,56.9,49.9,56.0,46.7,38.8,97,71,41,30.04,29.85,18,7,24,0.73
2013-3-31,58.0,49.4,33.4,43.9,35.5,27.9,94,62,32,30.11,29.90,15,8,19,0.05
2013-4-1,41.0,32.2,23.3,31.8,20.8,15.9,94,65,39,30.34,30.11,13,7,18,0.00
2013-4-2,52.1,39.7,25.4,29.4,23.6,16.3,75,54,38,30.35,30.23,7,2,18,0.00
2013-4-3,53.9,43.4,33.4,29.5,25.9,22.3,67,51,36,30.33,30.19,11,7,18,0.00
2013-4-4,63.4,47.2,30.0,41.4,34.0,26.5,88,62,43,30.22,30.03,9,4,18,0.00
2013-4-5,70.5,53.0,34.8,41.5,34.9,29.6,84,54,28,30.13,29.65,19,9,26,0.00
2013-4-6,71.0,60.8,53.7,47.1,42.7,38.9,75,53,34,29.73,29.54,18,9,23,0.00
2013-4-7,73.4,58.0,42.3,52.1,43.0,38.1,95,61,29,29.77,29.55,14,4,18,0.69
2013-4-8,67.2,57.9,47.2,61.4,55.1,46.0,98,90,79,29.64,29.57,11,5,18,0.01
2013-4-9,64.1,46.2,33.0,60.7,44.4,32.0,100,94,87,29.97,29.46,20,12,27,0.74
2013-4-10,35.7,33.6,31.4,34.3,32.4,30.5,97,96,92,30.00,29.78,17,10,20,0.17
2013-4-11,36.0,32.2,29.0,32.8,29.4,27.1,97,89,81,29.84,29.69,10,6,18,0.02
2013-4-12,45.4,36.5,31.4,33.6,29.9,26.8,88,77,60,30.03,29.77,16,9,20,0.01
2013-4-13,57.4,43.5,28.5,41.9,34.5,25.7,90,72,53,30.05,29.61,15,7,22,0.00
2013-4-14,64.8,57.3,45.6,51.6,40.9,30.4,73,55,38,29.66,29.25,18,7,25,0.00
2013-4-15,46.1,40.3,34.9,32.1,28.4,22.5,78,62,54,30.08,29.65,12,6,20,0.00
2013-4-16,49.7,42.4,35.2,35.5,31.2,29.1,83,66,46,30.23,30.06,8,6,20,0.00
2013-4-17,45.7,40.8,36.1,41.0,37.5,34.5,100,89,67,30.14,29.68,20,9,26,0.59
2013-4-18,36.4,33.5,30.5,34.5,30.6,26.9,96,89,76,29.95,29.71,23,17,30,0.19
2013-4-19,47.5,37.0,28.5,29.2,25.3,22.5,84,64,42,30.12,29.92,19,9,20,0.00
2013-4-20,48.3,38.3,26.7,31.3,26.5,21.9,86,64,44,30.25,30.10,15,6,21,0.00
2013-4-21,68.3,55.3,44.7,49.8,40.6,30.8,93,60,38,30.13,29.93,20,10,29,0.36
2013-4-22,52.5,42.8,32.8,50.4,41.1,29.4,97,94,86,30.21,29.90,21,9,25,1.02
2013-4-23,37.9,32.8,28.1,29.3,25.7,21.8,88,75,60,30.29,30.17,19,13,25,0.00
2013-4-24,60.2,40.6,25.1,37.9,28.1,21.7,88,65,28,30.24,30.05,15,5,18,0.00
2013-4-25,69.2,52.0,32.9,41.0,34.7,28.6,85,57,28,30.25,29.97,17,8,20,0.00
2013-4-26,68.5,58.2,49.8,52.0,45.2,38.2,89,63,48,30.14,29.97,14,9,16,0.00
2013-4-27,70.3,55.8,44.5,53.2,48.1,42.6,97,78,44,30.14,29.89,11,4,16,0.00
2013-4-28,80.9,64.8,48.0,56.9,51.0,46.1,94,65,34,29.90,29.61,15,8,23,0.00
2013-4-29,83.8,67.9,55.0,57.0,51.9,46.1,79,59,29,29.73,29.44,12,4,18,0.00
2013-4-30,69.6,65.4,59.9,51.1,47.2,39.4,62,52,46,29.79,29.62,10,7,17,0.02
2013-5-1,59.9,41.0,32.7,42.7,36.9,31.8,97,87,49,30.42,29.78,19,13,25,0.56
2013-5-2,50.4,39.8,32.7,37.4,32.2,29.0,97,75,50,30.57,30.39,20,12,24,0.34
2013-5-3,50.9,41.3,30.4,35.0,30.5,26.6,92,67,46,30.40,30.03,17,10,24,0.00
2013-5-4,43.2,40.0,36.9,40.5,36.7,30.8,94,88,65,30.15,29.97,17,13,28,0.00
2013-5-5,56.0,46.9,41.3,49.9,43.3,39.0,92,87,77,30.18,30.09,12,8,17,0.00
2013-5-6,67.8,55.6,47.2,52.9,48.3,45.0,93,78,54,30.14,29.99,7,3,17,0.00
2013-5-7,72.1,60.1,46.1,60.3,52.9,44.0,95,79,52,30.03,29.87,9,3,17,0.12
2013-5-8,68.3,61.9,57.3,61.0,57.0,53.3,94,84,74,29.91,29.82,11,4,17,0.01
2013-5-9,65.8,59.3,55.6,59.2,56.3,53.6,98,90,74,29.95,29.78,14,8,21,0.01
2013-5-10,68.1,57.7,48.9,54.3,49.5,46.0,94,76,51,30.07,29.95,11,6,17,0.00
2013-5-11,60.9,54.2,46.0,47.4,34.8,23.9,83,51,27,30.23,30.00,21,10,26,0.00
2013-5-12,66.3,52.9,36.4,36.7,31.5,25.1,80,48,24,30.25,30.06,8,3,17,0.00
2013-5-13,83.5,66.9,50.0,56.8,46.6,36.4,73,51,25,30.07,29.78,15,8,22,0.00
2013-5-14,97.9,80.5,62.4,61.4,55.4,45.4,84,48,17,29.78,29.54,18,8,25,0.00
2013-5-15,82.9,73.2,61.8,55.0,47.4,41.8,54,41,28,29.80,29.65,13,6,17,0.00
2013-5-16,82.3,72.7,59.0,64.2,58.6,48.1,89,62,47,29.78,29.65,12,4,17,0.00
2013-5-17,71.7,66.3,62.2,60.4,59.5,58.1,87,79,67,29.80,29.71,6,4,17,0.00
2013-5-18,83.4,78.7,63.0,70.0,67.2,58.9,93,68,56,29.78,29.58,17,11,24,0.54
2013-5-19,76.1,65.4,59.5,67.9,61.1,56.5,96,87,65,29.68,29.39,16,5,20,0.68
2013-5-20,75.1,65.9,57.8,59.4,55.7,49.5,93,72,47,29.59,29.45,15,5,24,0.00
2013-5-21,62.6,58.5,52.9,56.5,50.3,46.7,91,75,61,29.70,29.55,9,3,18,0.00
2013-5-22,60.7,54.9,50.0,52.2,49.5,47.2,92,82,69,29.96,29.70,12,7,15,0.00
2013-5-23,72.0,60.0,51.5,54.0,49.3,45.4,94,71,39,30.17,29.96,9,6,14,0.01
2013-5-24,73.7,63.9,50.7,55.4,50.7,45.7,87,63,49,30.22,29.92,17,9,26,0.00
2013-5-25,80.9,70.7,60.8,69.8,62.4,53.1,97,76,62,30.06,29.83,18,7,21,0.43
2013-5-26,84.1,75.0,69.1,71.2,67.4,64.7,87,78,63,29.88,29.70,14,9,20,0.00
2013-5-27,79.1,68.8,60.2,69.0,63.2,58.5,97,83,62,29.82,29.48,17,8,26,3.05
2013-5-28,80.4,70.4,61.0,67.4,63.7,59.9,97,81,58,29.64,29.54,17,4,21,0.02
2013-5-29,77.4,69.5,62.8,70.8,65.7,60.9,95,88,78,29.61,29.40,18,9,24,1.70
2013-5-30,76.4,65.4,60.1,65.4,59.7,54.7,94,83,63,29.55,29.42,15,7,18,0.16
2013-5-31,78.3,68.0,56.6,58.2,51.9,47.0,86,59,36,29.68,29.55,13,4,17,0.00
2013-6-1,64.1,59.0,53.7,54.4,50.7,48.0,84,74,62,30.00,29.62,15,8,21,0.00
2013-6-2,68.6,59.2,48.9,49.5,46.3,43.6,90,64,41,30.10,29.95,11,5,15,0.00
2013-6-3,75.1,64.7,53.4,56.3,51.1,46.4,82,63,46,29.98,29.73,16,10,21,0.00
2013-6-4,74.1,67.0,60.7,65.8,60.5,55.7,92,80,67,29.92,29.77,12,4,16,0.00
2013-6-5,72.2,63.6,54.9,63.7,53.9,49.6,93,72,48,30.00,29.89,13,6,18,0.12
2013-6-6,71.7,62.3,53.3,57.9,52.3,49.2,90,71,50,29.96,29.90,11,5,14,0.00
2013-6-7,82.0,64.8,51.0,56.4,51.1,47.8,92,64,35,29.99,29.81,8,2,13,0.00
2013-6-8,74.1,65.9,60.8,67.3,58.8,51.6,93,78,62,29.82,29.57,15,7,18,0.71
2013-6-9,73.1,65.1,59.6,60.9,57.9,55.8,92,78,61,29.79,29.66,20,9,27,0.00
2013-6-10,83.8,69.8,54.9,63.4,58.8,53.0,96,71,45,29.83,29.69,15,5,18,0.00
2013-6-11,92.0,79.3,67.2,72.2,65.6,54.1,91,66,28,29.72,29.56,20,8,28,0.03
2013-6-12,88.0,78.1,62.9,72.7,65.0,54.1,86,65,45,29.95,29.52,23,12,28,0.08
2013-6-13,78.3,66.5,56.9,63.3,57.5,53.4,90,74,43,30.04,29.91,9,3,28,0.10
2013-6-14,90.7,75.7,63.2,76.2,65.8,59.0,87,72,41,29.95,29.62,22,9,28,0.00
2013-6-15,79.6,75.3,67.8,69.8,66.9,61.4,93,76,58,29.87,29.71,16,8,28,0.00
2013-6-16,87.5,75.3,65.6,71.1,65.7,60.9,98,75,46,29.91,29.83,14,2,28,0.00
2013-6-17,89.4,77.4,65.5,62.2,59.8,56.0,82,57,35,29.94,29.84,10,4,13,0.00
2013-6-18,85.2,74.6,63.9,63.7,59.3,56.6,83,60,40,29.99,29.87,8,2,14,0.00
2013-6-19,86.0,76.8,65.8,70.9,63.6,60.8,84,65,45,29.91,29.78,16,8,21,0.13
2013-6-20,89.8,81.1,70.4,73.8,69.5,63.1,83,68,57,29.85,29.68,21,14,26,0.00
2013-6-21,96.2,85.2,77.7,73.7,71.3,67.8,79,65,40,29.73,29.64,19,15,25,0.00
2013-6-22,91.0,80.9,68.1,73.6,67.6,60.2,92,65,44,29.89,29.64,19,11,27,0.02
2013-6-23,82.1,73.9,64.6,71.6,67.3,62.2,95,81,58,29.84,29.64,21,6,27,0.90
2013-6-24,85.7,76.9,71.2,75.1,70.7,67.1,94,82,65,29.85,29.60,23,7,26,0.29
2013-6-25,89.2,81.2,70.5,76.8,71.1,63.0,84,72,59,29.66,29.54,20,9,22,0.01
2013-6-26,94.4,82.9,73.8,74.7,68.6,61.5,96,65,37,29.78,29.56,12,4,16,0.00
2013-6-27,86.9,76.0,69.5,74.0,68.9,65.4,91,79,61,29.91,29.78,20,2,20,0.34
2013-6-28,84.5,76.7,69.8,69.8,63.1,56.3,91,66,39,29.92,29.83,20,10,26,0.00
2013-6-29,80.4,72.1,64.6,60.8,58.9,55.7,80,64,45,29.87,29.82,24,13,32,0.00
2013-6-30,79.2,69.0,58.9,62.4,57.5,53.4,92,69,45,30.05,29.87,10,4,26,0.00
2013-7-1,84.1,70.7,54.6,59.3,54.9,50.5,88,60,37,30.13,30.03,8,4,26,0.00
2013-7-2,82.7,71.0,61.1,62.3,57.4,53.1,85,64,39,30.09,29.98,12,2,26,0.00
2013-7-3,86.6,73.0,59.7,62.8,58.1,53.1,92,63,34,30.00,29.86,9,2,26,0.00
2013-7-4,85.8,75.3,62.6,60.3,56.7,53.0,77,54,33,29.90,29.78,16,11,26,0.00
2013-7-5,87.9,78.3,68.2,65.6,61.6,57.6,74,57,42,29.82,29.71,17,12,26,0.00
2013-7-6,87.1,79.4,73.9,69.4,63.9,58.6,66,59,51,29.76,29.67,18,13,26,0.00
2013-7-7,93.3,83.2,73.7,70.1,66.3,62.1,73,58,42,29.80,29.70,15,9,26,0.00
2013-7-8,89.9,83.1,78.7,75.9,70.0,65.8,73,65,53,29.86,29.76,16,7,26,0.00
2013-7-9,99.3,86.4,76.7,75.8,71.6,65.6,79,62,43,29.84,29.72,20,5,26,0.00
2013-7-10,86.3,78.2,70.4,71.5,67.5,64.2,87,71,50,29.99,29.84,9,3,26,0.00
2013-7-11,87.2,76.9,67.1,64.7,62.4,59.1,88,63,42,30.03,29.85,13,7,26,0.00
2013-7-12,92.8,81.5,72.0,73.1,66.4,59.0,70,61,51,29.89,29.77,19,12,23,0.00
2013-7-13,93.0,83.1,76.4,74.1,70.6,67.6,76,67,48,29.85,29.77,18,12,28,0.00
2013-7-14,87.3,78.9,71.6,69.1,63.8,58.0,79,62,38,30.05,29.83,16,8,21,0.00
2013-7-15,89.3,77.6,63.5,69.9,64.8,60.2,90,67,45,30.11,30.01,12,4,19,0.00
2013-7-16,89.6,80.4,69.5,69.2,65.5,62.0,87,62,45,30.16,30.07,12,6,19,0.00
2013-7-17,90.7,82.8,72.2,70.0,68.4,66.3,85,63,45,30.21,30.05,11,6,19,0.00
2013-7-18,92.2,83.7,73.6,71.0,68.3,66.6,82,61,45,30.06,29.82,17,10,22,0.00
2013-7-19,94.0,83.1,75.1,72.1,67.8,62.2,74,61,37,29.85,29.77,13,5,19,0.00
2013-7-20,88.7,77.6,67.2,68.7,64.0,55.6,87,65,33,29.90,29.75,11,3,19,0.00
2013-7-21,90.1,79.8,68.6,73.0,69.1,65.5,92,71,50,29.83,29.66,12,4,19,0.00
2013-7-22,95.6,82.6,70.3,75.6,69.7,64.8,92,68,40,29.75,29.64,13,6,21,0.00
2013-7-23,82.4,73.3,65.1,68.8,65.1,62.7,92,76,58,29.93,29.73,24,4,33,0.15
2013-7-24,87.1,73.2,60.8,68.3,63.3,58.6,94,73,48,30.01,29.90,8,2,19,0.00
2013-7-25,77.8,73.9,69.7,68.6,65.3,62.3,89,75,64,29.97,29.90,12,7,19,0.00
2013-7-26,79.3,71.2,60.7,68.5,59.8,50.5,96,70,39,30.05,29.89,17,8,20,0.00
2013-7-27,76.0,65.3,56.0,53.3,50.7,46.1,87,62,36,30.08,29.95,10,4,19,0.00
2013-7-28,80.1,66.3,51.2,58.3,52.2,47.8,90,63,38,30.01,29.93,7,1,19,0.00
2013-7-29,67.9,63.9,60.1,64.5,60.8,57.4,97,90,70,29.98,29.92,10,4,19,0.57
2013-7-30,77.6,70.3,64.8,69.4,66.6,64.0,98,89,72,30.05,29.95,8,2,19,0.01
2013-7-31,87.6,74.7,63.4,71.2,66.8,62.2,97,78,52,30.07,29.96,5,1,19,0.00
2013-8-1,87.0,74.7,64.0,70.6,66.1,61.0,96,77,44,30.01,29.79,19,7,27,1.05
2013-8-2,83.7,74.4,65.5,71.3,67.7,63.4,96,80,62,29.92,29.70,19,4,26,0.04
2013-8-3,78.1,69.2,62.3,65.9,62.2,59.3,93,79,59,30.10,29.92,7,1,12,0.00
2013-8-4,77.5,69.0,61.8,69.3,63.0,58.0,89,82,67,30.10,29.94,14,4,19,0.00
2013-8-5,85.9,76.9,70.2,74.7,71.5,67.3,95,84,67,29.96,29.75,13,5,15,0.00
2013-8-6,88.5,78.7,69.2,75.9,72.3,66.3,97,82,65,29.83,29.70,14,4,17,0.03
2013-8-7,85.4,75.9,67.9,71.8,65.2,60.0,90,71,44,29.91,29.73,10,3,13,0.00
2013-8-8,78.9,71.1,64.7,68.0,64.8,61.9,91,81,61,29.95,29.86,8,1,12,0.00
2013-8-9,82.5,73.4,65.2,70.0,65.5,61.5,97,78,51,30.07,29.94,10,2,13,0.00
2013-8-10,82.4,72.6,60.6,66.8,62.6,57.1,91,72,57,30.12,29.99,12,5,16,0.00
2013-8-11,85.3,76.2,65.7,69.8,66.1,61.3,87,72,57,30.04,29.89,13,7,19,0.00
2013-8-12,86.5,75.6,66.8,72.3,67.5,63.3,96,78,49,29.98,29.90,8,3,12,0.09
2013-8-13,79.6,70.6,62.7,63.7,60.7,57.6,92,73,49,30.09,29.99,4,1,12,0.00
2013-8-14,75.8,67.7,57.7,62.2,59.0,54.8,92,75,56,30.11,29.98,12,5,17,0.00
2013-8-15,70.3,66.1,62.7,64.4,62.0,59.1,94,87,68,30.03,29.93,15,5,19,0.25
2013-8-16,73.9,67.1,61.3,61.7,60.4,59.1,95,80,62,30.10,30.02,13,4,18,0.00
2013-8-17,78.4,70.8,64.2,60.6,58.7,57.0,82,67,50,30.12,30.02,12,7,15,0.00
2013-8-18,74.6,64.8,57.5,63.8,57.9,53.6,90,79,69,30.08,29.98,9,4,12,0.00
2013-8-19,85.5,76.4,66.4,70.4,66.4,62.1,88,72,58,30.00,29.82,17,11,25,0.00
2013-8-20,88.4,79.6,71.1,71.6,69.0,66.4,85,71,55,29.87,29.80,16,12,23,0.00
2013-8-21,91.0,81.0,71.3,73.3,69.5,66.6,85,69,53,29.89,29.82,14,12,19,0.00
2013-8-22,86.6,77.3,70.0,72.2,69.1,65.8,91,77,58,29.99,29.85,13,3,17,0.03
2013-8-23,89.0,79.6,69.2,72.6,69.5,67.5,96,73,50,29.98,29.85,17,8,24,0.00
2013-8-24,92.0,83.6,76.3,73.7,71.0,67.9,81,67,52,29.94,29.86,20,14,27,0.00
2013-8-25,93.9,84.6,75.2,74.6,71.6,70.0,84,66,49,29.99,29.91,18,14,22,0.00
2013-8-26,94.3,84.8,75.6,72.7,71.0,69.3,83,65,48,29.96,29.83,17,13,26,0.00
2013-8-27,95.5,85.1,74.9,72.1,68.7,64.1,78,59,41,29.85,29.78,16,12,24,0.00
2013-8-28,92.8,82.8,71.2,71.5,66.5,63.5,80,60,40,29.89,29.81,11,8,14,0.00
2013-8-29,96.3,84.6,71.3,74.5,70.9,67.1,91,66,42,29.89,29.78,13,6,16,0.00
2013-8-30,99.3,84.6,74.4,79.6,71.5,66.9,87,67,40,29.80,29.72,9,5,11,0.00
2013-8-31,94.9,82.6,72.9,75.8,71.6,67.7,93,72,42,29.79,29.67,12,3,15,0.00
2013-9-1,85.6,77.2,67.0,71.7,63.5,55.8,94,66,37,29.92,29.65,17,8,22,0.00
2013-9-2,83.0,69.6,58.7,63.3,58.2,53.5,95,70,42,30.03,29.92,8,3,12,0.00
2013-9-3,84.6,72.2,56.8,63.0,58.9,52.5,88,65,46,30.03,29.93,11,4,16,0.00
2013-9-4,85.7,74.3,64.6,65.2,61.6,55.6,84,66,37,30.08,29.95,13,6,19,0.00
2013-9-5,87.3,77.9,68.6,65.4,63.0,60.6,80,61,42,30.08,29.98,11,6,15,0.00
2013-9-6,92.7,81.2,69.8,70.5,66.1,60.4,78,61,46,29.99,29.79,16,11,26,0.00
2013-9-7,92.6,80.7,73.2,73.0,69.0,64.0,92,69,40,29.81,29.76,14,6,18,0.00
2013-9-8,95.6,81.7,68.3,75.8,71.2,67.1,97,74,46,29.82,29.67,9,3,14,0.00
2013-9-9,97.5,85.7,75.1,67.5,62.6,57.4,65,48,29,29.73,29.66,18,12,25,0.00
2013-9-10,95.9,81.7,72.0,71.0,64.8,59.3,94,59,35,29.96,29.73,16,8,21,0.45
2013-9-11,81.7,73.6,70.1,73.1,69.9,68.1,95,88,74,30.05,29.93,11,3,11,0.37
2013-9-12,81.7,71.4,62.6,68.9,60.1,52.6,96,71,41,30.15,30.03,8,2,14,0.00
2013-9-13,75.9,65.0,53.3,56.6,52.8,50.0,91,67,42,30.16,30.00,6,1,9,0.00
2013-9-14,76.3,67.5,57.8,59.7,54.4,50.0,83,64,47,30.01,29.78,14,8,19,0.00
2013-9-15,70.6,66.0,61.6,66.2,60.1,55.9,94,81,68,30.17,29.77,11,5,15,0.13
2013-9-16,64.1,60.4,55.3,56.5,54.8,51.7,94,82,72,30.26,30.13,9,3,17,0.02
2013-9-17,76.3,66.0,58.1,68.6,63.0,56.4,97,91,76,30.13,29.79,14,8,19,0.08
2013-9-18,90.3,78.3,68.4,71.2,68.2,65.7,93,73,51,29.80,29.58,19,13,24,0.00
2013-9-19,80.9,71.3,58.4,70.5,61.6,51.4,92,72,56,29.95,29.61,17,9,25,0.25
2013-9-20,71.5,60.5,49.6,53.4,47.6,44.1,92,66,38,30.05,29.92,18,7,20,0.00
2013-9-21,79.6,63.8,48.2,55.8,51.0,45.5,92,66,41,29.97,29.78,11,6,18,0.00
2013-9-22,80.4,69.4,57.9,55.8,53.1,49.5,85,59,36,29.82,29.69,18,12,24,0.00
2013-9-23,77.2,67.6,58.1,55.1,51.9,49.5,74,58,39,29.75,29.59,23,13,30,0.00
2013-9-24,70.4,64.1,56.1,58.7,56.3,53.3,92,76,63,29.85,29.58,16,7,21,0.00
2013-9-25,79.4,66.0,52.7,62.4,57.8,51.6,98,77,53,29.86,29.65,15,7,23,0.00
2013-9-26,88.5,75.7,65.1,61.7,60.3,58.4,84,61,39,29.69,29.60,22,15,30,0.00
2013-9-27,87.4,78.2,70.9,63.8,61.0,58.9,70,56,42,29.71,29.61,22,16,30,0.00
2013-9-28,76.4,62.8,53.6,64.3,50.5,41.8,93,66,40,30.00,29.56,18,10,23,0.33
2013-9-29,76.6,61.9,48.9,48.4,45.0,42.1,82,57,31,30.01,29.82,15,8,21,0.00
2013-9-30,81.2,66.9,55.1,54.8,51.1,47.2,81,59,35,29.83,29.63,16,11,21,0.00
2013-10-1,81.5,68.6,55.7,54.8,52.3,48.4,88,59,34,29.89,29.69,13,4,17,0.00
2013-10-2,83.8,71.7,56.1,66.4,59.2,48.3,92,66,49,29.88,29.73,17,7,23,0.00
2013-10-3,79.9,69.7,61.1,68.4,63.0,59.5,95,80,65,29.81,29.60,20,6,26,1.39
2013-10-4,85.3,67.7,48.8,71.2,59.6,36.2,93,77,49,29.85,29.51,18,7,26,0.00
2013-10-5,51.4,46.2,42.4,37.4,35.3,33.2,81,66,52,29.90,29.81,13,7,25,0.00
2013-10-6,60.1,48.4,42.8,47.1,40.1,33.0,93,75,42,30.00,29.79,21,11,25,0.06
2013-10-7,73.7,57.7,41.3,45.4,40.9,37.0,86,58,31,30.07,29.94,12,7,18,0.00
2013-10-8,76.9,64.5,52.8,48.4,44.7,41.5,68,50,35,29.94,29.80,20,14,25,0.00
2013-10-9,78.8,66.6,56.5,53.8,50.6,47.0,72,58,40,29.90,29.83,18,13,26,0.00
2013-10-10,80.5,68.9,58.7,59.5,56.1,53.0,82,65,47,29.89,29.68,20,12,25,0.00
2013-10-11,77.5,66.6,53.4,60.0,51.8,41.2,83,62,28,29.84,29.54,23,13,26,0.00
2013-10-12,66.2,55.0,44.8,43.5,36.8,31.5,80,54,28,30.24,29.83,11,5,17,0.00
2013-10-13,70.0,55.2,39.6,40.9,36.2,32.7,79,52,30,30.37,30.22,14,4,22,0.00
2013-10-14,60.4,55.2,48.2,58.8,47.3,36.0,95,76,47,30.23,29.67,22,12,28,0.41
2013-10-15,54.0,47.8,44.1,49.0,40.2,36.5,87,75,67,30.07,29.77,20,12,26,0.00
2013-10-16,56.4,47.5,39.5,41.1,36.0,26.9,89,67,34,30.08,29.93,14,6,18,0.00
2013-10-17,58.6,46.5,36.8,43.9,37.9,33.7,89,73,51,30.05,29.87,19,8,24,0.00
2013-10-18,50.9,41.6,34.7,37.5,31.5,26.3,92,69,39,30.13,30.01,8,5,14,0.00
2013-10-19,62.7,47.6,32.7,40.4,34.6,29.4,90,64,38,30.01,29.78,12,4,15,0.00
2013-10-20,64.7,52.1,42.8,43.8,39.0,36.1,81,63,37,29.99,29.69,16,8,22,0.00
2013-10-21,55.6,43.6,31.7,40.0,35.2,29.6,93,74,49,30.09,29.90,13,5,14,0.00
2013-10-22,52.4,46.1,34.5,44.3,38.6,31.4,89,75,60,30.11,29.86,22,8,28,0.00
2013-10-23,55.9,41.3,32.0,42.5,35.8,29.9,93,82,59,30.21,30.02,17,4,18,0.00
2013-10-24,50.2,40.7,31.6,35.2,28.8,24.1,90,65,37,30.41,30.21,13,6,18,0.00
2013-10-25,58.8,44.8,30.4,35.4,30.3,25.3,83,59,38,30.40,30.05,17,9,22,0.00
2013-10-26,52.4,45.1,35.3,36.3,32.1,26.9,81,61,40,30.21,30.01,16,7,19,0.00
2013-10-27,71.1,50.1,31.7,39.2,33.2,26.3,82,56,30,30.14,29.79,15,8,22,0.00
2013-10-28,53.0,46.6,39.2,41.1,37.7,34.5,84,72,57,30.15,29.90,7,4,14,0.01
2013-10-29,51.6,47.4,42.9,50.8,45.5,40.9,97,93,82,30.12,29.90,7,3,14,0.11
2013-10-30,53.4,47.0,42.3,52.6,45.9,39.6,98,96,90,29.94,29.74,12,6,15,0.06
2013-10-31,58.6,45.7,36.6,46.8,39.1,35.4,97,80,45,29.75,29.50,15,4,24,0.00
2013-11-1,59.6,47.7,40.6,43.0,38.3,34.9,83,71,41,30.00,29.60,22,9,32,0.00
2013-11-2,60.5,46.3,34.5,37.6,33.6,30.3,89,64,33,30.19,29.99,13,6,14,0.00
2013-11-3,58.2,51.5,44.1,40.8,35.1,28.8,65,54,44,30.05,29.67,26,16,43,0.00
2013-11-4,57.7,50.4,39.1,42.8,38.7,32.9,79,65,48,30.10,29.71,15,6,18,0.00
2013-11-5,43.7,39.9,34.3,42.1,37.1,32.5,100,90,78,30.10,29.80,22,7,27,0.97
2013-11-6,44.1,36.7,32.5,34.9,32.4,30.0,94,85,66,30.28,30.06,18,7,20,0.00
2013-11-7,50.1,40.0,31.9,32.0,27.9,23.3,92,65,36,30.42,30.26,13,6,18,0.00
2013-11-8,61.9,50.2,36.5,40.7,34.8,26.8,76,57,37,30.25,29.70,24,10,28,0.00
2013-11-9,60.8,50.2,41.8,38.2,35.3,31.6,79,58,38,30.32,29.90,14,7,19,0.00
2013-11-10,53.8,44.0,32.2,39.1,32.8,28.4,88,66,40,30.38,30.12,11,5,14,0.00
2013-11-11,47.4,34.6,19.4,44.2,27.4,12.5,94,75,55,30.78,30.08,20,11,30,0.00
2013-11-12,35.1,23.0,11.8,13.8,10.6,7.9,85,62,33,30.94,30.59,12,6,14,0.00
2013-11-13,55.4,39.2,26.5,32.7,23.1,12.0,64,53,40,30.59,29.97,21,13,24,0.00
2013-11-14,54.7,44.1,35.9,38.1,31.1,24.8,81,61,51,29.97,29.87,15,5,21,0.00
2013-11-15,56.8,44.0,30.7,44.6,35.4,27.8,92,73,49,29.88,29.55,12,6,21,0.00
2013-11-16,64.5,54.4,44.3,51.4,40.5,28.1,91,63,35,29.55,29.28,18,8,25,0.00
2013-11-17,55.3,48.1,36.4,41.6,35.4,27.5,84,62,40,30.05,29.25,20,9,23,0.00
2013-11-18,57.1,43.1,28.7,33.0,26.9,24.2,84,57,31,30.24,30.04,9,5,21,0.00
2013-11-19,62.0,49.9,36.9,36.0,28.3,24.9,67,45,29,30.15,29.82,18,11,26,0.00
2013-11-20,61.8,51.2,38.2,41.0,35.3,27.0,88,56,40,29.88,29.67,13,7,21,0.00
2013-11-21,38.5,27.5,20.5,35.3,22.3,16.9,91,81,70,30.61,29.87,22,15,34,0.00
2013-11-22,31.6,21.8,12.7,16.7,11.2,6.9,83,64,44,30.77,30.61,15,7,25,0.00
2013-11-23,25.1,19.5,15.1,16.5,8.8,3.8,84,64,42,30.93,30.68,10,4,25,0.00
2013-11-24,32.2,22.6,12.8,13.9,9.3,5.8,77,58,42,30.80,30.25,16,10,25,0.00
2013-11-25,45.3,33.6,25.9,31.4,22.9,10.4,79,65,49,30.26,30.14,13,7,25,0.00
2013-11-26,32.6,26.5,17.2,25.2,15.5,8.4,92,65,40,30.47,30.22,25,10,30,0.00
2013-11-27,35.1,24.1,11.2,19.8,13.3,7.3,92,65,45,30.47,30.07,15,8,25,0.00
2013-11-28,36.1,28.3,21.5,22.6,19.1,15.1,83,69,48,30.50,30.12,14,6,25,0.00
2013-11-29,49.5,33.4,17.3,29.5,22.5,13.3,85,66,44,30.50,30.13,11,5,25,0.00
2013-11-30,63.0,41.4,27.0,34.8,28.4,22.5,85,63,33,30.14,30.03,11,3,25,0.00
2013-12-1,50.5,37.0,25.9,32.9,28.2,22.7,89,72,50,30.15,29.84,4,1,25,0.00
2013-12-2,64.4,46.7,32.5,37.0,33.3,26.6,86,63,35,29.83,29.48,8,4,25,0.00
2013-12-3,42.7,38.2,34.1,34.8,32.5,30.1,92,80,71,29.68,29.45,12,6,25,0.00
2013-12-4,34.0,21.6,16.1,31.4,17.0,8.0,100,82,69,30.15,29.64,21,15,25,0.00
2013-12-5,16.5,11.5,7.2,8.1,0.7,-3.4,73,62,48,30.51,30.13,19,11,25,0.00
2013-12-6,13.5,6.2,-0.7,-2.5,-4.4,-6.6,76,62,46,30.79,30.51,14,8,18,0.00
2013-12-7,12.2,4.9,-3.2,7.2,-2.6,-8.4,83,71,53,30.84,30.47,6,2,15,0.00
2013-12-8,18.6,13.9,7.6,15.3,10.5,4.9,92,86,81,30.47,30.06,5,1,15,0.00
2013-12-9,15.1,6.0,-4.5,7.1,-0.8,-9.4,89,73,60,30.44,30.18,16,6,19,0.00
2013-12-10,30.2,22.4,15.5,24.7,14.8,7.5,86,72,65,30.33,30.17,15,6,22,0.03
2013-12-11,30.5,12.1,2.2,26.7,4.4,-3.9,89,71,59,30.72,30.29,19,8,23,0.00
2013-12-12,33.8,21.8,10.4,23.8,14.7,3.5,84,74,65,30.53,30.11,14,6,16,0.00
2013-12-13,28.9,22.7,16.2,24.4,19.2,13.3,91,86,81,30.12,29.90,12,3,19,0.00
2013-12-14,24.0,19.1,13.7,19.0,14.8,10.0,91,83,74,30.28,30.12,13,7,18,0.00
2013-12-15,32.8,24.1,16.9,27.3,20.7,14.3,92,87,77,30.21,29.98,6,1,15,0.01
2013-12-16,50.8,29.9,14.1,36.3,24.5,12.0,92,81,54,30.21,29.99,11,2,13,0.00
2013-12-17,42.5,34.0,27.0,29.5,23.6,17.8,91,68,37,30.32,30.09,17,6,22,0.00
2013-12-18,57.6,43.1,32.5,32.3,28.2,22.4,68,57,37,30.09,29.68,16,8,19,0.00
2013-12-19,39.0,29.8,16.6,29.5,23.9,13.9,89,79,65,29.91,29.70,18,7,23,0.00
2013-12-20,19.0,15.5,11.7,14.2,11.6,8.5,95,84,80,30.05,29.91,17,9,22,0.00
2013-12-21,25.4,21.2,17.5,19.6,16.5,13.6,89,82,72,29.95,29.82,12,3,17,0.00
2013-12-22,22.7,17.7,9.8,19.2,11.6,4.1,91,77,62,30.46,29.91,18,11,22,0.00
2013-12-23,13.6,8.8,3.5,4.4,-0.5,-3.4,80,66,51,30.69,30.45,16,8,17,0.00
2013-12-24,28.2,17.8,10.5,25.3,12.8,1.6,93,81,64,30.60,30.18,15,8,20,0.00
2013-12-25,43.1,29.9,19.2,29.4,21.9,16.7,92,74,50,30.34,30.27,22,8,30,0.00
2013-12-26,52.3,35.7,24.9,26.0,21.8,18.9,79,60,31,30.28,30.12,11,5,14,0.00
2013-12-27,62.4,40.9,24.0,30.7,24.6,17.8,84,57,25,30.27,30.06,17,7,23,0.00
2013-12-28,60.2,41.6,16.8,31.4,26.2,8.1,80,58,27,30.15,29.72,28,14,32,0.00
2013-12-29,16.8,11.0,6.4,8.7,-6.3,-13.3,74,47,26,30.43,30.15,25,12,35,0.00
2013-12-30,42.4,22.0,8.1,27.3,7.6,-8.5,82,54,43,30.35,30.11,24,9,29,0.00
2013-12-31,43.2,19.9,8.7,26.0,12.4,4.8,87,74,47,30.33,30.01,10,3,15,0.00
2014-1-1,11.9,9.1,5.2,6.6,4.6,0.1,86,82,78,30.49,30.15,14,8,20,0.00
2014-1-2,13.2,6.2,1.0,5.9,1.3,-2.8,86,80,70,30.56,30.45,8,3,14,0.00